PST,Max TemperatureF,Mean TemperatureF,Min TemperatureF,Max Dew PointF,MeanDew PointF,Min DewpointF,Max Humidity, Mean Humidity, Min Humidity, Max Sea Level PressureIn, Mean Sea Level PressureIn, Min Sea Level PressureIn, Max VisibilityMiles, Mean VisibilityMiles, Min VisibilityMiles, Max Wind SpeedMPH, Mean Wind SpeedMPH, Max Gust SpeedMPH,PrecipitationIn, CloudCover, Events, WindDirDegrees
2013-11-1,78,62,46,58,51,41,83,60,30,30.08,30.02,29.96,7,7,7,8,3,,0.00,0,,269
2013-11-2,75,65,53,60,51,37,94,65,28,29.94,29.90,29.83,7,7,7,9,3,,0.00,0,,273
2013-11-3,69,60,52,56,54,47,90,74,61,29.91,29.87,29.83,7,7,6,8,5,,0.00,2,,285
2013-11-4,70,64,55,55,53,49,82,70,57,29.92,29.85,29.81,7,7,6,13,5,,0.00,3,,288
2013-11-5,80,70,60,44,26,16,50,22,9,30.14,30.07,29.95,7,7,7,25,14,,0.00,0,,24
2013-11-6,80,70,60,54,34,12,78,35,8,30.19,30.14,30.10,7,7,7,17,11,,0.00,2,,30
2013-11-7,82,70,55,56,41,20,83,41,11,30.09,30.01,29.58,7,7,7,14,8,,0.00,4,,308
2013-11-8,72,59,46,61,53,36,97,74,36,30.02,29.97,29.92,7,6,0,16,7,,0.00,2,Fog,156
2013-11-9,70,66,63,56,55,51,75,65,59,30.05,30.02,29.99,7,6,4,13,7,,0.00,1,,186
2013-11-10,77,70,62,55,52,44,75,56,31,30.09,30.08,30.06,7,7,7,16,8,,0.00,2,,264
2013-11-11,71,66,62,58,51,46,73,56,42,30.10,30.07,30.04,7,7,7,9,4,,0.00,2,,240
2013-11-12,77,67,57,59,53,50,84,68,40,30.17,30.10,30.06,7,7,7,9,6,,0.00,5,,348
2013-11-13,84,70,57,56,48,42,75,47,23,30.00,29.95,29.90,7,7,7,10,6,,0.00,1,,320
2013-11-14,79,67,55,58,54,38,90,66,37,29.93,29.83,29.75,8,7,7,10,7,,0.00,1,,315
2013-11-15,69,60,51,56,52,48,97,83,58,29.76,29.73,29.69,10,5,0,21,5,,0.00,3,Fog,360
2013-11-16,69,61,53,55,52,48,89,73,54,29.94,29.85,29.74,10,8,7,12,4,,0.00,5,,299
2013-11-17,70,62,53,54,51,49,86,73,51,30.09,30.02,29.94,10,8,7,9,4,,0.00,1,,16
2013-11-18,68,59,50,54,51,46,87,76,59,30.17,30.11,30.07,10,8,7,10,6,,0.00,4,,328
2013-11-19,66,60,54,55,52,49,87,76,59,30.08,30.02,29.96,10,8,6,13,5,,0.00,5,,345
2013-11-20,68,62,55,58,55,51,93,80,63,29.97,29.91,29.87,10,6,2,12,5,,0.16,7,Rain,104
2013-11-21,64,62,57,58,56,44,93,82,57,29.89,29.85,29.82,10,7,2,15,5,,0.07,7,Rain,304
2013-11-22,66,62,57,42,39,37,56,46,37,29.97,29.91,29.86,10,8,7,29,21,46,0.00,5,Rain,56
2013-11-23,70,62,55,41,39,38,57,45,31,30.09,30.03,29.97,10,8,7,22,16,33,0.00,3,,58
2013-11-24,70,62,52,50,43,40,80,55,33,30.20,30.15,30.08,10,8,7,15,10,,0.00,0,,52
2013-11-25,68,58,48,55,46,40,83,66,40,30.25,30.20,30.17,10,8,7,9,7,,0.00,0,,332
2013-11-26,69,58,46,58,49,41,83,70,45,30.18,30.11,30.04,10,8,7,9,3,,0.00,5,,180
2013-11-27,73,64,55,58,50,37,97,68,33,30.02,29.93,29.87,10,5,0,17,7,,0.00,3,Fog,132
2013-11-28,69,60,52,57,52,45,94,77,43,30.04,29.95,29.88,10,8,0,21,6,26,0.00,5,Fog,99
2013-11-29,69,63,55,56,52,48,87,70,54,30.18,30.12,30.05,10,9,7,22,8,26,0.04,5,Fog-Rain,109
2013-11-30,75,62,50,55,47,42,81,63,30,30.19,30.14,30.09,10,9,7,10,5,,0.00,0,,342